Regional Weather Roundup
Issued by NWS

Home | Current Version | Previous Version | Graphics & Text | Print | Product List | Glossary On
Versions: 1 2 3 4 5 6 7 8 9 10 11 12 13 14 15 16 17 18 19 20 21 22 23 24 25 26 27 28 29 30 31 32 33 34 35 36 37 38 39 40 41 42 43 44 45 46 47 48 49 50
000
ASUS45 KCYS 300910
RWRWY

WYOMING REGIONAL WEATHER ROUNDUP
NATIONAL WEATHER SERVICE CHEYENNE WY
300 AM MDT SAT AUG 30 2014

NOTE:  "FAIR" INDICATES FEW OR NO CLOUDS BELOW 12,000 FEET
WITH NO SIGNIFICANT WEATHER AND/OR OBSTRUCTIONS TO VISIBILITY.

WYZ001-301000-
YELLOWSTONE NATIONAL PARK

CITY           SKY/WX    TMP DP  RH WIND       PRES   REMARKS
LK YELLOWSTONE   N/A     43  40  89 NW3       30.17F
W YELLOWSTONE  NOT AVBL

$$
WYZ002>013-054>058-071-098>099-301000-
NORTHERN WYOMING

CITY           SKY/WX    TMP DP  RH WIND       PRES   REMARKS
JACKSON        MOCLDY    48  45  87 NW3       30.08F
CODY           PTCLDY    59  45  58 CALM      29.94F
GREYBULL       CLEAR     58  48  69 E3        29.88F
WORLAND        CLEAR     55  47  74 CALM      29.89F
SHERIDAN       CLEAR     51  47  86 S3        29.88F
BUFFALO        CLEAR     61  44  53 SE14      29.96F
GILLETTE       CLEAR     60  52  74 S10       29.96F
HULETT         FAIR      59  50  72 MISG      29.99
NEWCASTLE      FAIR      59  50  72 E9        30.02

$$
WYZ014>020-022>026-101>103-301000-
CENTRAL WYOMING

CITY           SKY/WX    TMP DP  RH WIND       PRES   REMARKS
BIG PINEY      PTCLDY    47  42  83 E5        30.15F
PINEDALE       MOSUNNY   45  43  93 CALM      30.16F
DUBOIS         FAIR      46  36  66 NW7       30.11F
LANDER         PTCLDY    58  41  53 N6        29.99F
RIVERTON       CLEAR     56  42  59 NW6       30.01F
CASPER         CLEAR     53  44  71 E3        30.01F
DOUGLAS        CLEAR     56  51  84 SE9       30.02F

$$
WYZ021-027>030-104>119-301000-
SOUTHERN WYOMING

CITY           SKY/WX    TMP DP  RH WIND       PRES   REMARKS
EVANSTON       PTCLDY    57  38  48 S7        30.14F
KEMMERER       PTSUNNY   46  43  87 N7        30.15F
FORT BRIDGER   FAIR      59  38  45 SW6       30.16F
ROCK SPRINGS   PTCLDY    60  35  39 S3        30.13F
DIXON          FAIR      53  47  79 CALM      30.20F
RAWLINS        CLEAR     54  40  59 CALM      30.15S
SARATOGA       FAIR      54  43  66 S9        30.19F
LARAMIE        PTCLDY    48  43  82 S12       30.19F
CHEYENNE       CLEAR     51  45  79 W8        30.13F
TORRINGTON     CLEAR     56  53  90 SE10      30.03S
PINE BLUFFS    FAIR      50  46  87 W3        30.11F

$$



USA.gov is the U.S. government's official web portal to all federal, state and local government web resources and services.